Total_Precipitation_Accumulation
0.00 0.00 0.00 0.00 0.00 0.00 0.00 0.00 0.00 0.00 0.00 0.00 0.00 0.00 0.00 0.00 0.00 0.00 0.01 0.01 0.02 0.06 0.15 0.31 0.57 0.81 1.00 1.37 1.26 0.90 0.58 0.42 0.40 0.44 0.47 0.55 0.65 0.69 0.73 0.75 0.71 0.66 0.64 0.67
0.00 0.00 0.00 0.00 0.00 0.00 0.00 0.00 0.00 0.00 0.00 0.00 0.00 0.00 0.00 0.00 0.00 0.00 0.00 0.01 0.02 0.07 0.14 0.23 0.41 0.56 0.62 0.67 0.76 0.82 0.79 0.66 0.65 0.78 0.95 1.20 1.31 1.28 1.28 1.18 1.06 1.00 1.00 1.03
0.00 0.00 0.00 0.00 0.00 0.00 0.00 0.00 0.00 0.00 0.00 0.00 0.00 0.00 0.00 0.00 0.00 0.00 0.00 0.01 0.02 0.03 0.08 0.17 0.23 0.33 0.45 0.59 0.73 0.81 0.82 0.81 0.89 1.10 1.28 1.50 1.61 1.67 1.59 1.39 1.29 1.21 1.14 1.11
0.00 0.00 0.00 0.00 0.00 0.00 0.00 0.00 0.00 0.00 0.00 0.00 0.00 0.00 0.00 0.00 0.00 0.01 0.01 0.01 0.02 0.02 0.04 0.09 0.15 0.22 0.36 0.56 0.67 0.69 0.78 0.92 1.10 1.36 1.59 1.73 1.84 1.78 1.62 1.44 1.29 1.15 1.01 0.90
0.00 0.00 0.00 0.00 0.00 0.00 0.00 0.00 0.00 0.00 0.00 0.00 0.00 0.00 0.00 0.00 0.01 0.01 0.01 0.01 0.02 0.02 0.03 0.07 0.12 0.19 0.35 0.52 0.62 0.66 0.78 1.02 1.31 1.59 1.75 1.82 1.81 1.66 1.47 1.26 1.07 0.93 0.81 0.67
0.00 0.00 0.00 0.00 0.00 0.00 0.00 0.00 0.00 0.00 0.00 0.00 0.00 0.00 0.00 0.00 0.01 0.01 0.01 0.02 0.03 0.04 0.05 0.09 0.13 0.19 0.29 0.43 0.59 0.68 0.83 1.12 1.33 1.50 1.67 1.67 1.58 1.41 1.21 1.01 0.85 0.76 0.64 0.52
0.00 0.00 0.00 0.00 0.00 0.00 0.00 0.00 0.00 0.00 0.00 0.00 0.00 0.00 0.01 0.01 0.02 0.02 0.02 0.04 0.05 0.05 0.07 0.12 0.16 0.20 0.29 0.42 0.58 0.74 0.93 1.13 1.20 1.23 1.25 1.24 1.17 1.08 0.96 0.87 0.74 0.60 0.45 0.32
0.00 0.00 0.00 0.00 0.00 0.00 0.00 0.00 0.00 0.00 0.00 0.00 0.00 0.01 0.03 0.03 0.03 0.04 0.04 0.05 0.06 0.07 0.11 0.16 0.21 0.26 0.35 0.45 0.55 0.66 0.75 0.85 0.92 0.92 0.93 0.96 0.89 0.80 0.70 0.57 0.43 0.33 0.23 0.16
0.00 0.00 0.00 0.00 0.00 0.00 0.00 0.00 0.00 0.00 0.00 0.00 0.00 0.02 0.05 0.05 0.04 0.05 0.07 0.09 0.11 0.14 0.17 0.23 0.28 0.35 0.42 0.48 0.50 0.51 0.50 0.50 0.52 0.54 0.54 0.52 0.46 0.42 0.38 0.29 0.20 0.15 0.11 0.08
0.00 0.00 0.00 0.00 0.00 0.00 0.00 0.00 0.00 0.00 0.00 0.00 0.00 0.02 0.04 0.05 0.06 0.08 0.10 0.14 0.16 0.18 0.24 0.31 0.35 0.37 0.38 0.34 0.32 0.30 0.28 0.29 0.31 0.31 0.29 0.28 0.26 0.23 0.19 0.14 0.11 0.10 0.09 0.08
0.00 0.00 0.00 0.00 0.00 0.00 0.00 0.00 0.00 0.00 0.00 0.00 0.00 0.05 0.08 0.11 0.11 0.15 0.19 0.21 0.19 0.25 0.34 0.35 0.35 0.31 0.26 0.21 0.20 0.19 0.18 0.17 0.16 0.16 0.14 0.14 0.13 0.12 0.12 0.12 0.10 0.09 0.08 0.07
0.00 0.00 0.00 0.00 0.00 0.00 0.00 0.00 0.00 0.00 0.01 0.00 0.01 0.07 0.08 0.13 0.19 0.22 0.23 0.25 0.30 0.33 0.36 0.34 0.31 0.26 0.21 0.16 0.13 0.11 0.11 0.11 0.10 0.09 0.08 0.08 0.07 0.07 0.07 0.07 0.07 0.07 0.08 0.08
0.00 0.00 0.02 0.02 0.02 0.01 0.01 0.00 0.00 0.00 0.00 0.00 0.02 0.12 0.15 0.21 0.29 0.28 0.27 0.35 0.44 0.45 0.45 0.38 0.28 0.21 0.16 0.13 0.11 0.11 0.13 0.12 0.10 0.08 0.07 0.06 0.07 0.07 0.08 0.08 0.09 0.09 0.10 0.11
0.00 0.00 0.02 0.09 0.10 0.04 0.02 0.02 0.02 0.02 0.02 0.02 0.05 0.17 0.21 0.27 0.34 0.37 0.42 0.49 0.53 0.51 0.45 0.34 0.25 0.21 0.17 0.16 0.16 0.16 0.15 0.13 0.11 0.09 0.08 0.08 0.09 0.10 0.12 0.12 0.13 0.14 0.15 0.17
0.00 0.01 0.01 0.02 0.05 0.04 0.04 0.03 0.04 0.04 0.05 0.06 0.10 0.22 0.32 0.45 0.53 0.55 0.56 0.54 0.51 0.47 0.42 0.34 0.31 0.28 0.25 0.22 0.20 0.18 0.17 0.14 0.12 0.11 0.11 0.13 0.16 0.17 0.18 0.19 0.19 0.20 0.20 0.19
0.00 0.01 0.01 0.01 0.01 0.02 0.03 0.03 0.03 0.05 0.06 0.08 0.16 0.36 0.50 0.61 0.60 0.61 0.58 0.50 0.45 0.42 0.42 0.41 0.38 0.34 0.29 0.27 0.25 0.24 0.22 0.22 0.21 0.22 0.25 0.25 0.25 0.25 0.25 0.24 0.24 0.25 0.23 0.20
0.01 0.02 0.02 0.02 0.01 0.02 0.04 0.05 0.05 0.06 0.08 0.10 0.20 0.32 0.38 0.47 0.52 0.48 0.45 0.44 0.46 0.49 0.50 0.47 0.39 0.36 0.36 0.36 0.37 0.40 0.39 0.37 0.37 0.38 0.36 0.33 0.30 0.29 0.27 0.25 0.26 0.24 0.20 0.15
0.03 0.05 0.05 0.04 0.06 0.10 0.10 0.06 0.06 0.09 0.14 0.17 0.22 0.25 0.29 0.33 0.37 0.39 0.39 0.44 0.50 0.54 0.51 0.45 0.39 0.39 0.44 0.51 0.54 0.51 0.48 0.45 0.43 0.42 0.39 0.33 0.27 0.24 0.24 0.24 0.22 0.16 0.13 0.11
0.04 0.08 0.13 0.12 0.14 0.16 0.19 0.11 0.08 0.14 0.22 0.16 0.20 0.20 0.22 0.23 0.26 0.28 0.28 0.34 0.41 0.41 0.39 0.41 0.44 0.50 0.59 0.62 0.59 0.55 0.50 0.45 0.41 0.37 0.30 0.22 0.17 0.17 0.16 0.14 0.12 0.11 0.11 0.10
0.06 0.11 0.21 0.25 0.28 0.32 0.35 0.14 0.09 0.18 0.33 0.21 0.19 0.19 0.22 0.23 0.30 0.23 0.19 0.20 0.25 0.30 0.35 0.43 0.53 0.61 0.63 0.58 0.50 0.45 0.40 0.35 0.29 0.22 0.17 0.14 0.12 0.09 0.08 0.08 0.09 0.10 0.09 0.08
0.21 0.24 0.30 0.40 0.50 0.52 0.26 0.11 0.17 0.36 0.40 0.31 0.25 0.24 0.26 0.29 0.30 0.23 0.19 0.21 0.25 0.32 0.40 0.49 0.54 0.54 0.49 0.42 0.36 0.33 0.28 0.23 0.16 0.11 0.09 0.08 0.06 0.04 0.04 0.06 0.08 0.08 0.07 0.07
0.34 0.42 0.47 0.51 0.61 0.65 0.28 0.16 0.29 0.34 0.28 0.28 0.28 0.26 0.26 0.27 0.25 0.24 0.25 0.28 0.32 0.38 0.43 0.44 0.41 0.37 0.31 0.24 0.22 0.20 0.17 0.11 0.07 0.06 0.05 0.04 0.03 0.02 0.02 0.06 0.08 0.07 0.08 0.08
0.35 0.39 0.53 0.63 0.69 0.50 0.26 0.20 0.21 0.23 0.26 0.28 0.30 0.30 0.30 0.33 0.35 0.34 0.36 0.38 0.38 0.37 0.37 0.33 0.27 0.21 0.16 0.13 0.13 0.13 0.09 0.06 0.06 0.07 0.06 0.04 0.03 0.03 0.03 0.06 0.07 0.07 0.08 0.07
0.48 0.33 0.41 0.53 0.55 0.38 0.25 0.17 0.16 0.19 0.23 0.26 0.32 0.34 0.33 0.33 0.31 0.32 0.35 0.36 0.35 0.32 0.26 0.21 0.15 0.12 0.10 0.08 0.07 0.05 0.04 0.05 0.07 0.08 0.07 0.05 0.05 0.06 0.05 0.06 0.05 0.05 0.06 0.05
0.45 0.45 0.51 0.59 0.57 0.43 0.34 0.24 0.21 0.25 0.28 0.31 0.33 0.29 0.26 0.24 0.22 0.21 0.22 0.22 0.21 0.17 0.14 0.11 0.09 0.07 0.05 0.04 0.03 0.02 0.02 0.04 0.06 0.07 0.05 0.05 0.04 0.06 0.07 0.07 0.03 0.02 0.03 0.02
0.33 0.41 0.58 0.73 0.59 0.47 0.44 0.36 0.31 0.31 0.28 0.25 0.21 0.21 0.22 0.21 0.18 0.16 0.15 0.14 0.13 0.10 0.08 0.07 0.07 0.04 0.03 0.02 0.01 0.01 0.01 0.02 0.05 0.06 0.05 0.04 0.03 0.04 0.05 0.09 0.08 0.02 0.01 0.01